This demonstration page uses our WeatherBlox Daily Observations layout. Learn more.

Left ArrowRight Arrow

41.86663, -103.66717

Hourly Observations for June 7, 2016

Temp ( °F °C ) Dew Point ( °F °C ) Humidity (%) Winds ( mph kmh ) Pressure ( in mb ) Visibility ( mi km ) Precip ( " mm )
12:53 am 00:53 Clear 59 15 46 7.8 62 62 E 8 13 29.96 1015 10 16 0.00 0.00
1:53 am 01:53 Clear 60 15.6 47 8.3 62 62 ESE 10 17 29.92 1013 10 16 0.00 0.00
2:53 am 02:53 Clear 58 14.4 47 8.3 67 67 ESE 8 13 29.91 1013 10 16 0.00 0.00
3:53 am 03:53 Clear 57 13.9 47 8.3 69 69 ESE 8 13 29.88 1012 10 16 0.00 0.00
4:53 am 04:53 Clear 55 12.8 47 8.3 74 74 ESE 8 13 29.90 1012 10 16 0.00 0.00
5:53 am 05:53 Sunny 55 12.8 48 8.9 77 77 ESE 9 15 29.90 1012 10 16 0.00 0.00
6:53 am 06:53 Sunny 59 15 50 10 72 72 ESE 10 17 29.89 1012 10 16 0.00 0.00
7:53 am 07:53 Sunny 66 18.9 52 11.1 61 61 ESE 10 17 29.88 1012 10 16 0.00 0.00
8:53 am 08:53 Sunny 70 21.1 54 12.2 57 57 SE 12 19 29.88 1012 10 16 0.00 0.00
9:53 am 09:53 Sunny 75 23.9 52 11.1 45 45 S 13 20 29.87 1012 10 16 0.00 0.00
10:53 am 10:53 Sunny 79 26.1 53 11.7 41 41 S 15 24 29.84 1011 10 16 0.00 0.00
11:53 am 11:53 Sunny 81 27.2 53 11.7 38 38 SSE 16 26 29.83 1010 10 16 0.00 0.00
12:53 pm 12:53 Sunny 84 28.9 53 11.7 34 34 SSE 16 26 29.80 1009 10 16 0.00 0.00
1:53 pm 13:53 Sunny 87 30.6 53 11.7 31 31 SE 10 17 29.77 1008 10 16 0.00 0.00
2:53 pm 14:53 Sunny 88 31.1 50 10 27 27 SSE 10 17 29.75 1008 10 16 0.00 0.00
3:53 pm 15:53 Sunny 88 31.1 51 10.6 28 28 SSE 15 24 29.74 1007 10 16 0.00 0.00
4:53 pm 16:53 Sunny 88 31.1 52 11.1 29 29 SSE 14 22 29.74 1007 10 16 0.00 0.00
5:53 pm 17:53 Sunny 84 28.9 53 11.7 34 34 SSE 18 30 29.74 1007 10 16 0.00 0.00
6:53 pm 18:53 Sunny 80 26.7 55 12.8 42 42 SSE 9 15 29.75 1007 10 16 0.00 0.00
7:53 pm 19:53 Sunny 77 25 55 12.8 47 47 ESE 6 9 29.75 1007 10 16 0.00 0.00
8:53 pm 20:53 Clear 74 23.3 55 12.8 52 52 ESE 9 15 29.74 1007 10 16 0.00 0.00
9:53 pm 21:53 Clear 72 22.2 57 13.9 59 59 SE 7 11 29.75 1008 10 16 0.00 0.00
10:53 pm 22:53 Clear 70 21.1 57 13.9 64 64 ESE 8 13 29.77 1008 10 16 0.00 0.00
11:53 pm 23:53 Clear 66 18.9 57 13.9 73 73 SE 5 7 29.76 1008 10 16 0.00 0.00

Powered by AerisWeather